सभी
Kurri Kurri Medical Airport YXKU मौसम
There is no TAF data available at YXKU. Showing TAF data for YMND (9 mi N).
MTL Terminal Area Forecast (no data for YXKU)
| Here is the undecoded forecast: 2026/05/04 18:55 YMND 041855Z 0420/0508 25006KT 9999 FEW005 SCT030 FM042300 30010KT CAVOK PROB30 0420/0423 0300 FG SCT001 RMK T 15 18 23 24 Q 1017 1019 1017 1016 |
There is no METAR data available at YXKU. Showing METAR data for YCNK (7 mi W).
Recent CES METAR history (no data for YXKU)
| Date | Time (AEST) | Flight Rules | Wind Dir. | Speed | Type | Height AGL (ft) | Visibility | Temp (°C) | Temp (°F) | Dew Point (°C) | Dew Point (°F) | Rel. Humid. | Pressure | Density Altitude | Remarks |
|---|---|---|---|---|---|---|---|---|---|---|---|---|---|---|---|
| 05-मई | 09:00 | n/a | 180° | 5 kt | Missing | 17° | 62° | 10° | 50° | 63% | 1019 mb | 280 ft | |||
| 05-मई | 08:00 | n/a | 250° | 7 kt | Missing | 15° | 59° | 10° | 50° | 72% | 1019 mb | 40 ft | |||
| 05-मई | 07:00 | n/a | 290° | 2 kt | Missing | 13° | 55° | 12° | 53° | 94% | 1018 mb | -171 ft | |||
| 05-मई | 06:00 | n/a | 270° | 3 kt | Missing | 15° | 59° | 15° | 59° | 100% | 1017 mb | 99 ft | |||
| 05-मई | 05:00 | n/a | 300° | 4 kt | Missing | 16° | 60° | 15° | 59° | 94% | 1016 mb | 249 ft | |||
| 05-मई | 04:00 | n/a | 300° | 5 kt | Missing | 17° | 62° | 16° | 60° | 94% | 1016 mb | 369 ft | |||
| 05-मई | 03:00 | n/a | 330° | 4 kt | Missing | 17° | 62° | 16° | 60° | 94% | 1016 mb | 369 ft | |||
| 05-मई | 02:00 | n/a | 340° | 6 kt | Missing | 17° | 62° | 16° | 60° | 94% | 1016 mb | 369 ft | |||
| 05-मई | 01:00 | n/a | Calm | Missing | 17° | 62° | 16° | 60° | 94% | 1016 mb | 369 ft | ||||
| 05-मई | 00:00 | n/a | 230° | 1 kt | Missing | 16° | 60° | 16° | 60° | 100% | 1016 mb | 249 ft | |||
| 04-मई | 23:00 | n/a | 290° | 3 kt | Missing | 16° | 60° | 16° | 60° | 100% | 1016 mb | 249 ft | |||
| 04-मई | 22:00 | n/a | 30° | 4 kt | Missing | 17° | 62° | 16° | 60° | 94% | 1016 mb | 369 ft | |||
| 04-मई | 21:00 | n/a | 10° | 2 kt | Missing | 17° | 62° | 16° | 60° | 94% | 1016 mb | 369 ft | |||
| 04-मई | 20:00 | n/a | 230° | 1 kt | Missing | 17° | 62° | 16° | 60° | 94% | 1016 mb | 369 ft | |||
| 04-मई | 19:00 | n/a | 340° | 7 kt | Missing | 19° | 66° | 15° | 59° | 78% | 1016 mb | 609 ft | |||
| 04-मई | 18:00 | n/a | 350° | 7 kt | Missing | 20° | 68° | 15° | 59° | 73% | 1015 mb | 758 ft | |||
| 04-मई | 17:00 | n/a | 350° | 6 kt | Missing | 21° | 69° | 15° | 59° | 69% | 1015 mb | 878 ft | |||
| 04-मई | 16:00 | n/a | 310° | 5 kt | Missing | 22° | 71° | 14° | 57° | 60% | 1015 mb | 998 ft | |||
| 04-मई | 15:00 | n/a | 340° | 2 kt | Missing | 23° | 73° | 14° | 57° | 57% | 1015 mb | 1,118 ft | |||
| 04-मई | 14:00 | n/a | 320° | 5 kt | Missing | 23° | 73° | 13° | 55° | 53% | 1015 mb | 1,118 ft | |||
| 04-मई | 13:00 | n/a | 300° | 4 kt | Missing | 24° | 75° | 13° | 55° | 50% | 1016 mb | 1,209 ft | |||
| 04-मई | 12:00 | n/a | 290° | 9 kt | Missing | 24° | 75° | 13° | 55° | 50% | 1017 mb | 1,179 ft | |||
| 04-मई | 11:00 | n/a | 320° | 5 kt | Missing | 25° | 77° | 13° | 55° | 47% | 1017 mb | 1,299 ft | |||
| 04-मई | 10:00 | n/a | 30° | 4 kt | Missing | 23° | 73° | 15° | 59° | 61% | 1017 mb | 1,059 ft |
लॉगिन
| Your browser is unsupported. अपना ब्राऊजर अपग्रेड करें |
